Regional Weather Roundup
Issued by NWS

Home | Current Version | Previous Version | Text Only | Print | Product List | Glossary On
Versions: 1 2 3 4 5 6 7 8 9 10 11 12 13 14 15 16 17 18 19 20 21 22 23 24 25 26 27 28 29 30 31 32 33 34 35 36 37 38 39 40 41 42 43 44 45 46 47 48 49 50
000
ASUS45 KREV 290810
RWRNV
NEVADA REGIONAL WEATHER ROUNDUP
NATIONAL WEATHER SERVICE RENO NV
1200 AM PST THU JAN 29 2015

NOTE: "FAIR" INDICATES FEW OR NO CLOUDS BELOW 12,000 FEET WITH NO
SIGNIFICANT WEATHER AND/OR OBSTRUCTIONS TO VISIBILITY.

NVZ001-003-004-290900-
WESTERN NEVADA

CITY           SKY/WX    TMP DP  RH WIND       PRES   REMARKS
RENO           PTCLDY    38  30  73 W3        30.30F
CARSON CITY    FAIR      32  27  80 CALM      30.31S
SLIDE MTN        N/A     27  27 100 E23         N/A
FALLON         MOCLDY    38  35  89 CALM      30.29F
LOVELOCK       PTCLDY    41  36  82 N7        30.30S
HAWTHORNE      CLOUDY    39  32  75 CALM      30.30S
$$

NVZ002-CAZ072-073-290900-
NORTHERN AND CENTRAL SIERRA

CITY           SKY/WX    TMP DP  RH WIND       PRES   REMARKS
S. LAKE TAHOE  PTCLDY    29  23  78 CALM      30.29S
TRUCKEE        PTCLDY    27  23  86 CALM      30.30F
SQUAW VLY 8000   N/A     32  28  86 CALM        N/A
BLUE CANYON    CLEAR     44  25  47 VRB3      30.25S
MAMMOTH LAKES  FAIR      28  25  86 CALM      30.32S
BRIDGEPORT     FAIR      30  23  75 CALM      30.28F
$$

NVZ030-031-036-290900-
NORTHERN NEVADA

CITY           SKY/WX    TMP DP  RH WIND       PRES   REMARKS
ELKO           CLEAR     31  28  89 CALM      30.36R
WINNEMUCCA     CLEAR     34  31  88 E9        30.33F
WENDOVER       CLOUDY    37  30  75 S6        30.39S
$$

NVZ035-037-290900-
CENTRAL NEVADA

CITY           SKY/WX    TMP DP  RH WIND       PRES   REMARKS
ELY            PTCLDY    27  25  92 S7        30.35S
EUREKA           N/A     27  23  85 S5        30.34S
$$

NVZ013-014-290900-
SOUTH CENTRAL NEVADA

CITY           SKY/WX    TMP DP  RH WIND       PRES   REMARKS
TONOPAH        CLOUDY    42  35  76 N6        30.30F
$$

NVZ017-020-022-290900-
SOUTHERN NEVADA

CITY           SKY/WX    TMP DP  RH WIND       PRES   REMARKS
LAS VEGAS      CLOUDY    57  46  66 S5        30.14F
N. LAS VEGAS   CLOUDY    57  42  57 N3        30.17F
NELLIS AFB     CLOUDY    56  46  67 E5        30.18F
HENDERSON      CLOUDY    52  46  80 E3        30.20F
MERCURY        CLOUDY    53  39  59 NE12      30.21F
$$



USA.gov is the U.S. government's official web portal to all federal, state and local government web resources and services.